Regional Weather Roundup
Issued by NWS Nashville, TN

Current Version | Previous Version | Text Only | Print | Product List | Glossary Off
Versions: 1 2 3 4 5 6 7 8 9 10 11 12 13 14 15 16 17 18 19 20 21 22 23 24 25 26 27

000
ASUS44 KOHX 270310
RWROHX
MIDDLE TENNESSEE HOURLY WEATHER ROUNDUP
NATIONAL WEATHER SERVICE NASHVILLE TN
1000 PM CDT MON SEP 26 2016

NOTE: "FAIR" INDICATES FEW OR NO CLOUDS BELOW 12,000 FEET WITH
NO SIGNIFICANT WEATHER AND/OR OBSTRUCTIONS TO VISIBILITY.

* THESE REPORTS ARE NOT UNDER NWS QUALITY CONTROL AND MAY NOT
  REPORT WEATHER SUCH AS PRECIPITATION AND FOG.


TNZ005>011-023>034-057-059-062>066-078-080-270400
...NORTHERN MIDDLE TENNESSEE...

CITY           SKY/WX    TMP DP  RH WIND       PRES   REMARKS
CLARKSVILLE    CLEAR     55  53  93 CALM      30.11S
CROSSVILLE     CLOUDY    66  63  90 N6        30.10S
GALLATIN       CLEAR     61  55  82 N7        30.13F
DICKSON        CLEAR     56  54  93 CALM      30.12R
LEBANON        CLEAR     61  58  90 N3        30.09S
NASHVILLE      PTCLDY    63  58  83 N7        30.11S
WEST NASHVILLE CLEAR     59  55  88 CALM      30.11S
PORTLAND       CLEAR     55  55 100 CALM      30.11F
ROCKWOOD       MOCLDY    68  65  90 N5        30.07
SMYRNA         CLEAR     64  58  80 N8        30.11R
SPARTA         CLOUDY    64  63  94 N6        30.09R
$$
TNZ056-058-060-061-075>077-079-093>097-270400
...SOUTHERN MIDDLE TENNESSEE...

CITY           SKY/WX    TMP DP  RH WIND       PRES   REMARKS
COLUMBIA       PTCLDY   N/A N/A N/A CALM      30.09S
FAYETTEVILLE   CLOUDY    66  63  88 N10       30.07S
MCMINNVILLE    CLOUDY    64  64 100 N8        30.09S
MURFREESBORO   MOCLDY    64  59  84 N6        30.10R
SHELBYVILLE    PTCLDY    64  63  94 N5        30.10S
TULLAHOMA      CLOUDY    64  61  88 N7        30.09S
WINCHESTER     CLOUDY    66  64  94 N7        30.07F
$$


...KEY TO REMARKS...
VSB - VISIBILITY IN MILES
WCI - WIND CHILL INDEX
HX  - HEAT INDEX





USA.gov is the U.S. government's official web portal to all federal, state and local government web resources and services.